Weather History for Wiscasset, ME

Change the Weather History Date:

Tuesday, September 3, 2013

  Actual Average Record
Temperature  
Mean Temperature 70 °F -  
Max Temperature 77 °F 71 °F 91 °F (1999)
Min Temperature 66 °F 50 °F 42 °F (2001)
Cooling Degree Days 6    
Growing Degree Days 20 (Base 50)    
Moisture  
Dew Point 66 °F    
Average Humidity 89    
Maximum Humidity 100    
Minimum Humidity 73    
Precipitation  
Precipitation 0.01 in - - ()
Sea Level Pressure  
Sea Level Pressure 29.74 in    
Wind  
Wind Speed 1 mph (SSE)    
Max Wind Speed 8 mph    
Max Gust Speed -    
Visibility 7 miles    
Events Fog    
Averages and records for this station are not official NWS values.
T = Trace of Precipitation, MM = Missing Value Source: NWS Daily Summary

Daily Weather History Graph

Daily Weather History Graph

Search for Another Location

Airport:

Trip Planner

Search our weather history database for the weather conditions in past years. The results will help you decide how hot, cold, wet, or windy it might be!

Date:

Astronomy

Sep. 03, 2013 Rise Set
Actual Time 6:04 AM EDT 7:10 PM EDT
Civil Twilight 5:35 AM EDT 7:40 PM EDT
Nautical Twilight 4:59 AM EDT 8:15 PM EDT
Astronomical Twilight 4:22 AM EDT 8:52 PM EDT
Moon 4:13 AM EDT (9/3) 5:56 PM EDT (9/3)
Length of Visible Light 14h 05m
Length of Day
13h 06m
Waning Crescent, 3% of the Moon is Illuminated
Sep 3
Waning Crescent
Sep 5
New
Sep 12
First Quarter
Sep 19
Full
Sep 26
Last Quarter

Hourly Weather History & Observations

Time (EDT) Temp. Dew Point Humidity Pressure Visibility Wind Dir Wind Speed Gust Speed Precip Events Conditions
12:53 AM 66.0 °F 64.9 °F 96% 29.75 in 0.2 mi Calm Calm - 0.01 in Fog Fog
1:53 AM 66.0 °F 64.9 °F 96% 29.74 in 0.5 mi Calm Calm - N/A Fog Fog
2:53 AM 66.0 °F 64.9 °F 96% 29.71 in 0.2 mi East 3.5 mph - N/A Fog Fog
3:53 AM 66.0 °F 64.9 °F 96% 29.72 in 0.2 mi Calm Calm - N/A Fog Fog
4:29 AM 66.2 °F 64.4 °F 94% 29.72 in 1.2 mi Calm Calm - N/A   Overcast
4:41 AM 66.2 °F 64.4 °F 94% 29.72 in 2.0 mi Calm Calm - N/A   Overcast
4:51 AM 66.2 °F 64.4 °F 94% 29.72 in 6.0 mi Calm Calm - N/A   Overcast
4:53 AM 66.0 °F 64.9 °F 96% 29.72 in 7.0 mi Calm Calm - N/A   Overcast
5:53 AM 66.0 °F 66.0 °F 100% 29.73 in 4.0 mi Calm Calm - N/A   Overcast
6:07 AM 66.2 °F 64.4 °F 94% 29.73 in 2.0 mi Calm Calm - N/A   Overcast
6:28 AM 66.2 °F 64.4 °F 94% 29.74 in 1.5 mi Calm Calm - N/A   Overcast
6:42 AM 66.2 °F 64.4 °F 94% 29.74 in 2.0 mi Calm Calm - N/A   Overcast
6:50 AM 66.2 °F 66.2 °F 100% 29.74 in 1.8 mi Calm Calm - N/A   Overcast
6:53 AM 66.0 °F 66.0 °F 100% 29.75 in 2.0 mi Calm Calm - N/A   Overcast
7:05 AM 66.2 °F 66.2 °F 100% 29.75 in 3.0 mi Calm Calm - N/A   Overcast
7:24 AM 66.2 °F 66.2 °F 100% 29.75 in 6.0 mi Calm Calm - N/A   Overcast
7:53 AM 68.0 °F 66.0 °F 93% 29.77 in 9.0 mi Calm Calm - N/A   Overcast
8:03 AM 68.0 °F 66.2 °F 94% 29.77 in 9.0 mi Calm Calm - N/A   Overcast
8:53 AM 70.0 °F 66.9 °F 90% 29.77 in 10.0 mi Calm Calm - N/A   Overcast
9:04 AM 69.8 °F 66.2 °F 88% 29.77 in 10.0 mi SW 3.5 mph - N/A   Overcast
9:53 AM 70.0 °F 66.9 °F 90% 29.78 in 10.0 mi Calm Calm - N/A   Overcast
10:27 AM 71.6 °F 66.2 °F 83% 29.78 in 10.0 mi Variable 3.5 mph - N/A   Overcast
10:53 AM 72.0 °F 66.9 °F 84% 29.77 in 10.0 mi Calm Calm - N/A   Overcast
11:10 AM 71.6 °F 66.2 °F 83% 29.77 in 10.0 mi Variable 3.5 mph - N/A   Mostly Cloudy
11:53 AM 73.9 °F 66.0 °F 76% 29.75 in 10.0 mi SE 4.6 mph - N/A   Mostly Cloudy
12:53 PM 75.0 °F 66.9 °F 76% 29.74 in 10.0 mi SE 4.6 mph - N/A   Mostly Cloudy
1:19 PM 75.2 °F 66.2 °F 73% 29.74 in 10.0 mi SSE 5.8 mph - N/A   Scattered Clouds
1:53 PM 75.9 °F 68.0 °F 76% 29.73 in 10.0 mi Variable 5.8 mph - N/A   Partly Cloudy
2:53 PM 75.0 °F 66.9 °F 76% 29.73 in 10.0 mi South 8.1 mph - N/A   Scattered Clouds
3:03 PM 75.2 °F 66.2 °F 73% 29.72 in 10.0 mi South 6.9 mph - N/A   Mostly Cloudy
3:38 PM 73.4 °F 68.0 °F 83% 29.72 in 10.0 mi SSE 4.6 mph - N/A   Mostly Cloudy
3:48 PM 73.4 °F 66.2 °F 78% 29.72 in 10.0 mi South 6.9 mph - N/A   Mostly Cloudy
3:53 PM 73.9 °F 68.0 °F 82% 29.73 in 10.0 mi Variable 4.6 mph - N/A   Mostly Cloudy
4:53 PM 73.0 °F 66.9 °F 81% 29.72 in 10.0 mi South 4.6 mph - N/A   Scattered Clouds
5:53 PM 73.0 °F 68.0 °F 84% 29.72 in 10.0 mi South 5.8 mph - N/A   Partly Cloudy
6:53 PM 70.0 °F 68.0 °F 93% 29.72 in 9.0 mi Calm Calm - N/A   Overcast
7:05 PM 69.8 °F 66.2 °F 88% 29.72 in 8.0 mi Calm Calm - N/A   Overcast
7:15 PM 69.8 °F 66.2 °F 88% 29.72 in 8.0 mi Calm Calm - N/A   Overcast
7:34 PM 69.8 °F 66.2 °F 88% 29.72 in 9.0 mi Calm Calm - N/A   Overcast
7:53 PM 70.0 °F 66.9 °F 90% 29.73 in 8.0 mi Calm Calm - N/A   Overcast
8:51 PM 69.8 °F 66.2 °F 88% 29.74 in 8.0 mi Calm Calm - N/A   Overcast
8:53 PM 70.0 °F 66.9 °F 90% 29.74 in 8.0 mi Calm Calm - N/A   Overcast
9:53 PM 68.0 °F 66.9 °F 96% 29.74 in 5.0 mi Calm Calm - N/A   Overcast
10:53 PM 68.0 °F 66.0 °F 93% 29.74 in 6.0 mi Calm Calm - N/A   Clear
11:53 PM 66.9 °F 64.9 °F 93% 29.74 in 8.0 mi Calm Calm - N/A   Clear